This demonstration page uses our WeatherBlox Daily Observations layout. Learn more.

Left ArrowRight Arrow

Hourly Observations for June 8, 2015

Temp ( °F °C ) Dew Point ( °F °C ) Humidity (%) Winds ( mph kmh ) Pressure ( in mb ) Visibility ( mi km ) Precip ( " mm )
12:54 am 00:54 Clear 61 16.1 57 13.9 87 87 NNW 3 6 29.86 1011 10 16.0934 N/A
1:54 am 01:54 Clear 65 18.3 58 14.4 78 78 W 5 7 29.86 1011 10 16.0934 N/A
2:54 am 02:54 Clear 65 18.3 58 14.4 78 78 WNW 5 7 29.85 1011 10 16.0934 N/A
3:54 am 03:54 Clear 65 18.3 57 13.9 76 76 W 3 6 29.85 1011 10 16.0934 N/A
4:54 am 04:54 Clear 61 16.1 57 13.9 87 87 SW 3 6 29.87 1011 10 16.0934 N/A
5:54 am 05:54 Clear 59 15 57 13.9 93 93 SSW 3 6 29.89 1012 10 16.0934 N/A
6:54 am 06:54 Sunny 65 18.3 58 14.4 78 78 WSW 5 7 29.88 1012 10 16.0934 N/A
7:54 am 07:54 Sunny 70 21.1 59 15 68 68 W 7 11 29.88 1012 10 16.0934 N/A
8:54 am 08:54 Sunny 75 23.9 60 15.6 60 60 NW 10 17 29.89 1012 10 16.0934 N/A
9:54 am 09:54 Sunny 79 26.1 59 15 50 50 NW 10 17 29.89 1012 10 16.0934 N/A
10:54 am 10:54 Sunny 81 27.2 58 14.4 45 45 NNW 7 11 29.89 1012 10 16.0934 N/A
11:54 am 11:54 Sunny 84 28.9 57 13.9 40 40 NNW 10 17 29.9 1013 10 16.0934 N/A
12:54 pm 12:54 Sunny 86 30 51 10.6 30 30 NW 16 26 29.9 1013 10 16.0934 N/A
1:54 pm 13:54 Sunny 87 30.6 51 10.6 29 29 NW 13 20 29.9 1012 10 16.0934 N/A
2:54 pm 14:54 Sunny 88 31.1 49 9.4 26 26 NW 10 17 29.89 1012 10 16.0934 N/A
3:54 pm 15:54 Sunny 88 31.1 50 10 27 27 N 10 17 29.88 1012 10 16.0934 N/A
4:54 pm 16:54 Sunny 89 31.7 48 8.9 24 24 NW 9 15 29.87 1012 10 16.0934 N/A
5:54 pm 17:54 Sunny 89 31.7 48 8.9 24 24 N 14 22 29.86 1011 10 16.0934 N/A
6:54 pm 18:54 Sunny 89 31.7 48 8.9 24 24 NW 6 9 29.84 1011 10 16.0934 N/A
7:54 pm 19:54 Sunny 88 31.1 50 10 27 27 W 3 6 29.84 1011 10 16.0934 N/A
8:54 pm 20:54 Sunny 84 28.9 53 11.7 34 34 W 5 7 29.85 1011 10 16.0934 N/A
9:54 pm 21:54 Clear 72 22.2 60 15.6 66 66 N 6 9 29.87 1012 10 16.0934 N/A
10:54 pm 22:54 Clear 72 22.2 58 14.4 61 61 N N/A 29.88 1012 10 16.0934 N/A
11:54 pm 23:54 Clear 72 22.2 58 14.4 61 61 N N/A 29.87 1012 10 16.0934 N/A

Powered by AerisWeather